Regional Weather Roundup
Issued by NWS

Home | Current Version | Previous Version | Text Only | Print | Product List | Glossary On
Versions: 1 2 3 4 5 6 7 8 9 10 11 12 13 14 15 16 17 18 19 20 21 22 23 24 25 26 27 28 29 30 31 32 33 34 35 36 37 38 39 40 41 42 43 44 45 46 47 48 49 50
000
ASUS42 KTBW 310210
RWRFL
FLORIDA REGIONAL WEATHER ROUNDUP
NATIONAL WEATHER SERVICE TAMPA BAY RUSKIN FL
1000 PM EDT SAT AUG 30 2014

NOTE: "FAIR" INDICATES FEW OR NO CLOUDS BELOW 12,000 FEET WITH NO
SIGNIFICANT WEATHER AND/OR OBSTRUCTIONS TO VISIBILITY.


FLZ001>010-012>015-112-114-115-310300-
PANHANDLE FLORIDA

CITY           SKY/WX    TMP DP  RH WIND       PRES   REMARKS
PENSACOLA      MOCLDY    81  76  84 S7        30.07S
PENSACOLA NAS  MOCLDY    84  78  82 S8        30.07R HX  95
MILTON NAS     MOCLDY    81  74  79 CALM      30.09R
CRESTVIEW      MOCLDY    82  75  79 CALM      30.10R
DUKE FIELD     FAIR      81  77  88 S5        30.09R
VALPARAISO     MOCLDY    84  78  80 SW2       30.08R HX  95
MARY ESTHER    MOCLDY    84  74  71 S7        30.07R
TRI COUNTY     FAIR      78  75  90 CALM      30.11R
PANAMA CITY    FAIR      82  77  84 CALM      30.08R
TYNDALL AFB    MOCLDY    81  77  86 CALM      30.10R
APALACHICOLA   PTCLDY    81  76  84 CALM      30.08S

STATION/POSITION SKY/WX   TEMP    WIND        PRES    WAVE   SWELL
                          AIR SEA DIR/SP/G            HT/PER HT/PER
                          (F)     (DEG/KT/KT) (MB)    (FT/S) (FT/S)
30.1N   87.6W              85 86  170/ 10/ 12 1018.0R   3/ 6   2/ 6
29.2N   88.2W              85 85  150/ 12/ 14 1018.0
28.8N   86.0W              85 86  130/  6/  8 1018.3R   3/ 6   3/ 6
PANAMA CITY BEAC           85 87  170/  6/  7 1018.8R
CAPE SAN BLAS    NOT AVBL
TOWER C                    84     180/  5/  6 1019.1R
28.5N   84.5W              85 86  160/  4/  4 1019.0R   2/ 5   2/ 5

$$
FLZ011-016>038-118-127-128-134-139-239-310300-
NORTH FLORIDA

CITY           SKY/WX    TMP DP  RH WIND       PRES   REMARKS
MARIANNA       MOCLDY    80  74  81 S5        30.09R
TALLAHASSEE    MOCLDY    81  75  82 CALM      30.10R
PERRY          CLEAR     79  77  94 CALM      30.11R
CROSS CITY       N/A     81  75  82 NW3       30.09R
LAKE CITY      CLOUDY    79  72  78 SW5       30.15R THUNDER
GAINESVILLE    CLOUDY    73  71  93 SW8       30.13R
MAYPORT NAS    PTCLDY    83  75  77 SE6       30.12R
JACKSONVILLE   PTCLDY    81  75  82 SE8       30.11R
JAX NAS        PTCLDY    86  75  69 SE7       30.13R HX  95
JAX CRAIG      MOCLDY    82  75  79 CALM      30.12R
JAX CECIL      PTCLDY    77  75  94 CALM      30.12S
FERNANDINA BEA CLOUDY    82  73  74 SE7       30.11R
ST AUGUSTINE   MOCLDY    82  77  84 SE6       30.13R

STATION/POSITION SKY/WX   TEMP    WIND        PRES    WAVE   SWELL
                          AIR SEA DIR/SP/G            HT/PER HT/PER
                          (F)     (DEG/KT/KT) (MB)    (FT/S) (FT/S)
SHELL POINT                85     220/  6/  7   N/A
KEATON BEACH               85     290/  6/  7 1019.4R
CEDAR KEY                  85     300/  5/  6 1018.8R
FERNANDINA                 83 87  140/  4/  7 1019.3S
30.7N   81.3W                 85                N/A     2/ 7
MAYPORT                    83 86  160/  4/  6   N/A
31.4N   80.9W              83 85  120/ 10/ 12 1019.9R   2/ 8   2/ 8
ST AUGUSTINE               83     150/ 12/ 13 1020.6R

$$
FLZ040-043>046-052-053-057-058-063-144-310300-
INTERIOR CENTRAL FLORIDA

CITY           SKY/WX    TMP DP  RH WIND       PRES   REMARKS
OCALA          MOCLDY    75  72  88 CALM      30.12R
LEESBURG       PTCLDY    81  74  79 SW3       30.13R
SANFORD        CLEAR     80  74  81 SE5       30.12R
ORLANDO EXEC   CLEAR     82  74  76 SE6       30.13R
ORLANDO INTL   PTCLDY    78  74  87 S6        30.13R
KISSIMMEE      CLEAR     81  77  89 CALM      30.13R
WINTER HAVEN   CLEAR     79  71  76 N3        30.13R
LAKELAND       CLEAR     75  72  88 CALM      30.13R
BARTOW         FAIR      75  72  88 CALM      30.13R
OKEECHOBEE       N/A     75  72  88 MISG        N/A

$$
FLZ041-047-054-059-064-141-147-310300-
EAST CENTRAL FLORIDA

CITY           SKY/WX    TMP DP  RH WIND       PRES   REMARKS
DAYTONA BEACH  PTCLDY    81  75  82 CALM      30.13R
DELAND         CLEAR     79  75  89 SE6       30.13R
NEW SMYRNA BEA CLEAR     82  75  78 SE6       30.13R
JFK SPACE CTR  CLEAR     79  75  86 SE5       30.12R
CAPE CANAVERAL CLEAR     79  75  86 SE5       30.11R
PATRICK AFB    CLEAR     83  76  78 SE8       30.12R
MELBOURNE      CLEAR     84  72  67 SE5       30.11R
VERO BEACH     CLEAR     81  70  69 SE8       30.11R
FT PIERCE      CLEAR     84  73  69 SE9       30.11R
STUART         CLEAR     81  75  83 SE10      30.12R

STATION/POSITION SKY/WX   TEMP    WIND        PRES    WAVE   SWELL
                          AIR SEA DIR/SP/G            HT/PER HT/PER
                          (F)     (DEG/KT/KT) (MB)    (FT/S) (FT/S)
28.5N   80.2W              84 83  120/  8/ 10 1020.0R
28.9N   78.5W              83 85  140/  6/  8 1020.6R   3/10   3/10
TRIDENT PIER               82 86  110/  3/  5 1019.2F
28.4N   80.5W                 84                N/A     2/10
27.6N   80.2W                 85                N/A     3/ 9

$$
FLZ050-056-061-142-242-148-248-149-249-151-251-155-255-
160-260-310300-
WEST CENTRAL FLORIDA

CITY           SKY/WX    TMP DP  RH WIND       PRES   REMARKS
CRYSTAL RIVER  MOCLDY    81  72  74 CALM      30.11R THUNDER
INVERNESS      FAIR      73  72  94 CALM      30.12S
BROOKSVILLE    CLOUDY    77  73  87 W8        30.14R
ZEPHYRHILLS    FAIR      75  72  88 CALM      30.13S
CLEARWATER     MOCLDY    78  73  84 CALM      30.12R
TAMPA INTL     MOCLDY    79  72  79 CALM      30.12R
TAMPA EXEC     PTCLDY    77  73  88 CALM      30.12R
PLANT CITY     MOCLDY    77  77 100 CALM      30.14R
MACDILL AFB    MOCLDY    76  74  96 N2        30.11R
ST PETERSBURG  MOCLDY    80  73  79 CALM      30.10R
SARASOTA       CLOUDY    78  74  87 N3        30.09R
VENICE           N/A    N/A N/A N/A MISG        N/A

STATION/POSITION SKY/WX   TEMP    WIND        PRES    WAVE   SWELL
                          AIR SEA DIR/SP/G            HT/PER HT/PER
                          (F)     (DEG/KT/KT) (MB)    (FT/S) (FT/S)
CEDAR KEY                  85     300/  5/  6 1018.8R
28.5N   84.5W              85 86  160/  4/  4 1019.0R   2/ 5   2/ 5
27.3N   84.3W                 86                N/A     3/ 6
CLEARWATER BEACH           81 88  220/  5/ 11 1019.5R
MIDDLE TAMPA BAY           81     270/  3/  4 1019.6S
VENICE                     78 88   30/  4/  5 1018.8R

$$
FLZ066-069-070-075>078-162-262-165-265-310300-
SOUTHWEST FLORIDA AND KEYS

CITY           SKY/WX    TMP DP  RH WIND       PRES   REMARKS
PUNTA GORDA    MOCLDY    79  74  84 NE6       30.11R
FT MYERS       PTCLDY    82  75  79 CALM      30.08R
SOUTHWEST INTL PTCLDY    82  73  74 E6        30.09R
NAPLES         PTCLDY    84  74  71 E6        30.08R
MARCO ISLAND   CLEAR     82  73  74 E6        30.08R
MARATHON       PTCLDY    83  78  85 E9        30.06R
KEY WEST NAS   PTCLDY    86  74  67 E18G28    30.05R
KEY WEST INTL  CLEAR     87  75  67 E22       30.05R HX  96

STATION/POSITION SKY/WX   TEMP    WIND        PRES    WAVE   SWELL
                          AIR SEA DIR/SP/G            HT/PER HT/PER
                          (F)     (DEG/KT/KT) (MB)    (FT/S) (FT/S)
VENICE                     78 88   30/  4/  5 1018.8R
NAPLES                     84     130/  3/  5 1019.1R
DRY TORTUGAS               86     110/ 22/ 23 1016.9R
NW FL BAY                  88     120/ 14/ 19 1017.7R
SAND KEY                   86     110/ 23/ 26 1017.2R
SOMBRERO KEY               85     110/ 18/ 19 1018.6R
LONG KEY                   83 87  150/ 16/ 18 1018.6R
MOLASSES REEF              87 87  100/ 16/ 18 1018.1R

$$
FLZ067-068-071>074-168-172>174-310300-
SOUTHEAST FLORIDA

CITY           SKY/WX    TMP DP  RH WIND       PRES   REMARKS
W PALM BEACH   MOCLDY    84  77  79 SE14      30.10R
FT LAUDER-EXEC CLEAR     85  77  77 E10       30.09R HX  95
FT LAUDERDALE  MOCLDY    87  74  64 SE15      30.09R HX  95
POMPANO BEACH  CLEAR     87  76  69 E14       30.09R HX  97
PEMBROKE PINES PTCLDY    86  74  67 E10       30.10R
OPA LOCKA      PTCLDY    82  76  81 E7        30.09R
MIAMI          MOCLDY    86  76  71 E9        30.09R HX  96
WEST KENDALL   CLEAR     85  75  72 E9        30.08R
HOMESTEAD      CLEAR     85  76  72 E7        30.08R

STATION/POSITION SKY/WX   TEMP    WIND        PRES    WAVE   SWELL
                          AIR SEA DIR/SP/G            HT/PER HT/PER
                          (F)     (DEG/KT/KT) (MB)    (FT/S) (FT/S)
PORT EVERGLADES            86     110/  4/  9 1018.9
VIRGINIA KEY               86 87  110/ 11/ 14   N/A
LAKE WORTH                 85 88  130/ 13/ 15 1019.1R
FOWEY ROCKS                86 87  100/ 18/ 20 1019.0R
SETTLEMENT POINT           84     110/ 11/ 12 1020.3R

$$



USA.gov is the U.S. government's official web portal to all federal, state and local government web resources and services.